| time (UTC) | temp F | wind direction | speed knots | gust knots | rain 1hr in | rain 24hr in | rain mn in | humidity % | barometer mb |
| 20260506080800 | 67 | 210 | 11.3 | 14.8 | 0.00 | 0.00 | 0.00 | 60 | 1008.5 |
| 20260506080256 | 67 | 200 | 6.1 | 16.5 | 0.00 | 0.00 | 0.00 | 60 | 1008.5 |
| 20260506073240 | 66 | 195 | 5.2 | 10.4 | 0.00 | 0.00 | 0.00 | 60 | 1008.2 |
| 20260506072737 | 67 | 213 | 7.8 | 9.6 | 0.00 | 0.00 | 0.00 | 60 | 1008.4 |
| 20260506072235 | 67 | 210 | 8.7 | 13.0 | 0.00 | 0.00 | 0.00 | 59 | 1008.5 |
| 20260506071732 | 67 | 212 | 7.8 | 12.2 | 0.00 | 0.00 | 0.00 | 59 | 1008.5 |
| 20260506071230 | 67 | 206 | 7.8 | 11.3 | 0.00 | 0.00 | 0.00 | 58 | 1008.6 |
| 20260506070727 | 67 | 203 | 9.6 | 14.8 | 0.00 | 0.00 | 0.00 | 58 | 1008.4 |
| 20260506070224 | 67 | 202 | 7.8 | 13.0 | 0.00 | 0.00 | 0.00 | 57 | 1008.5 |
| 20260506062201 | 68 | 206 | 4.3 | 8.7 | 0.00 | 0.00 | 0.00 | 56 | 1009.2 |
| 20260506061656 | 68 | 196 | 4.3 | 12.2 | 0.00 | 0.00 | 0.00 | 55 | 1009.0 |
| 20260506061154 | 68 | 196 | 7.0 | 9.6 | 0.00 | 0.00 | 0.00 | 55 | 1009.2 |
| 20260506060653 | 68 | 212 | 6.1 | 7.8 | 0.00 | 0.00 | 0.00 | 55 | 1009.3 |
| 20260506060149 | 68 | 196 | 5.2 | 7.8 | 0.00 | 0.00 | 0.00 | 54 | 1009.5 |
| 20260506051121 | 69 | 210 | 7.8 | 9.6 | 0.00 | 0.00 | 0.00 | 51 | 1009.7 |
| 20260506050619 | 70 | 219 | 5.2 | 7.0 | 0.00 | 0.00 | 0.00 | 51 | 1009.4 |
| 20260506050116 | 70 | 211 | 7.0 | 12.2 | 0.00 | 0.00 | 0.00 | 50 | 1009.6 |
| 20260506045109 | 70 | 205 | 5.2 | 9.6 | 0.00 | 0.00 | 0.00 | 49 | 1009.7 |
| 20260506044608 | 70 | 194 | 5.2 | 10.4 | 0.00 | 0.00 | 0.00 | 49 | 1009.8 |
| 20260506044104 | 70 | 213 | 10.4 | 12.2 | 0.00 | 0.00 | 0.00 | 48 | 1009.6 |
| 20260506043601 | 70 | 210 | 7.8 | 14.8 | 0.00 | 0.00 | 0.00 | 48 | 1009.7 |
| 20260506043059 | 71 | 206 | 8.7 | 10.4 | 0.00 | 0.00 | 0.00 | 47 | 1009.8 |
| 20260506042558 | 71 | 203 | 7.0 | 13.0 | 0.00 | 0.00 | 0.00 | 47 | 1009.6 |
| 20260506042056 | 70 | 201 | 5.2 | 8.7 | 0.00 | 0.00 | 0.00 | 47 | 1009.6 |
| 20260506041554 | 70 | 202 | 10.4 | 16.5 | 0.00 | 0.00 | 0.00 | 47 | 1009.8 |
| 20260506041051 | 70 | 204 | 4.3 | 7.0 | 0.00 | 0.00 | 0.00 | 46 | 1009.5 |
| 20260506040549 | 70 | 188 | 6.1 | 7.8 | 0.00 | 0.00 | 0.00 | 46 | 1010.0 |
| 20260506040044 | 69 | 203 | 7.8 | 10.4 | 0.00 | 0.00 | 0.00 | 45 | 1009.8 |
| 20260506035542 | 70 | 200 | 4.3 | 6.1 | 0.00 | 0.00 | 0.00 | 45 | 1009.6 |
| 20260506035038 | 70 | 208 | 7.8 | 8.7 | 0.00 | 0.00 | 0.00 | 44 | 1009.6 |
| 20260506034536 | 70 | 204 | 6.1 | 12.2 | 0.00 | 0.00 | 0.00 | 43 | 1009.4 |
| 20260506034032 | 70 | 204 | 5.2 | 7.8 | 0.00 | 0.00 | 0.00 | 44 | 1009.6 |
| 20260506033530 | 70 | 208 | 4.3 | 8.7 | 0.00 | 0.00 | 0.00 | 44 | 1009.7 |
| 20260506033027 | 70 | 202 | 3.5 | 8.7 | 0.00 | 0.00 | 0.00 | 44 | 1009.6 |
| 20260506032524 | 70 | 216 | 5.2 | 8.7 | 0.00 | 0.00 | 0.00 | 44 | 1009.4 |
| 20260506032020 | 70 | 203 | 5.2 | 7.0 | 0.00 | 0.00 | 0.00 | 44 | 1009.5 |
| 20260506031519 | 69 | 202 | 3.5 | 6.1 | 0.00 | 0.00 | 0.00 | 44 | 1009.4 |
| 20260506031015 | 70 | 203 | 5.2 | 7.8 | 0.00 | 0.00 | 0.00 | 43 | 1009.4 |
| 20260506030513 | 70 | 205 | 3.5 | 7.0 | 0.00 | 0.00 | 0.00 | 44 | 1009.5 |
| 20260506030010 | 70 | 203 | 5.2 | 7.8 | 0.00 | 0.00 | 0.00 | 43 | 1009.5 |
| 20260506025507 | 70 | 202 | 3.5 | 6.1 | 0.00 | 0.00 | 0.00 | 43 | 1009.5 |
| 20260506025003 | 71 | 214 | 6.1 | 9.6 | 0.00 | 0.00 | 0.00 | 42 | 1009.6 |
| 20260506024500 | 71 | 203 | 10.4 | 10.4 | 0.00 | 0.00 | 0.00 | 41 | 1009.6 |
| 20260506023956 | 71 | 212 | 4.3 | 8.7 | 0.00 | 0.00 | 0.00 | 42 | 1009.4 |
| 20260506023453 | 71 | 204 | 6.1 | 7.8 | 0.00 | 0.00 | 0.00 | 41 | 1009.7 |
| 20260506022950 | 71 | 201 | 5.2 | 7.8 | 0.00 | 0.00 | 0.00 | 41 | 1009.4 |
| 20260506022447 | 71 | 202 | 6.1 | 8.7 | 0.00 | 0.00 | 0.00 | 40 | 1009.6 |
| 20260506021945 | 71 | 205 | 6.1 | 9.6 | 0.00 | 0.00 | 0.00 | 40 | 1009.5 |
| 20260506021442 | 71 | 206 | 8.7 | 9.6 | 0.00 | 0.00 | 0.00 | 40 | 1009.5 |
| 20260506020939 | 72 | 212 | 7.0 | 7.8 | 0.00 | 0.00 | 0.00 | 39 | 1009.5 |
| 20260506020437 | 72 | 201 | 5.2 | 9.6 | 0.00 | 0.00 | 0.00 | 39 | 1009.6 |
| 20260506015934 | 72 | 208 | 7.0 | 9.6 | 0.00 | 0.00 | 0.00 | 38 | 1009.6 |
| 20260506015431 | 72 | 211 | 5.2 | 11.3 | 0.00 | 0.00 | 0.00 | 39 | 1009.6 |
| 20260506014928 | 72 | 204 | 5.2 | 10.4 | 0.00 | 0.00 | 0.00 | 38 | 1009.4 |
| 20260506014425 | 72 | 206 | 6.1 | 8.7 | 0.00 | 0.00 | 0.00 | 37 | 1009.3 |
| 20260506013921 | 72 | 208 | 5.2 | 7.8 | 0.00 | 0.00 | 0.00 | 38 | 1009.4 |
| 20260506013420 | 72 | 204 | 6.1 | 7.0 | 0.00 | 0.00 | 0.00 | 37 | 1009.5 |
| 20260506012916 | 72 | 206 | 5.2 | 7.8 | 0.00 | 0.00 | 0.00 | 37 | 1009.1 |
| 20260506012412 | 73 | 217 | 7.0 | 7.0 | 0.00 | 0.00 | 0.00 | 36 | 1009.2 |
| 20260506011909 | 73 | 197 | 6.1 | 7.0 | 0.00 | 0.00 | 0.00 | 35 | 1009.1 |
| 20260506011407 | 73 | 202 | 6.1 | 9.6 | 0.00 | 0.00 | 0.00 | 35 | 1009.1 |
| 20260506010903 | 73 | 202 | 5.2 | 7.8 | 0.00 | 0.00 | 0.00 | 35 | 1009.1 |
| 20260506010402 | 73 | 200 | 3.5 | 7.0 | 0.00 | 0.00 | 0.00 | 34 | 1009.1 |
| 20260506005858 | 74 | 197 | 6.1 | 10.4 | 0.00 | 0.00 | 0.00 | 34 | 1009.0 |
| 20260506005355 | 74 | 205 | 7.8 | 13.0 | 0.00 | 0.00 | 0.00 | 33 | 1008.8 |
| 20260506004851 | 74 | 200 | 7.8 | 13.9 | 0.00 | 0.00 | 0.00 | 33 | 1009.1 |
| 20260506004349 | 74 | 195 | 6.1 | 10.4 | 0.00 | 0.00 | 0.00 | 33 | 1008.8 |
| 20260506003845 | 74 | 222 | 8.7 | 11.3 | 0.00 | 0.00 | 0.00 | 32 | 1008.9 |
| 20260506003341 | 75 | 209 | 11.3 | 12.2 | 0.00 | 0.00 | 0.00 | 31 | 1008.8 |
| 20260506002838 | 75 | 208 | 8.7 | 11.3 | 0.00 | 0.00 | 0.00 | 32 | 1008.5 |
| 20260506002334 | 75 | 206 | 4.3 | 12.2 | 0.00 | 0.00 | 0.00 | 31 | 1008.8 |
| 20260506001829 | 75 | 215 | 7.0 | 8.7 | 0.00 | 0.00 | 0.00 | 31 | 1008.5 |
| 20260506001327 | 75 | 207 | 5.2 | 10.4 | 0.00 | 0.00 | 0.00 | 31 | 1008.5 |
| 20260506000824 | 76 | 213 | 6.1 | 11.3 | 0.00 | 0.00 | 0.00 | 31 | 1008.5 |
| 20260506000323 | 76 | 211 | 5.2 | 10.4 | 0.00 | 0.00 | 0.00 | 31 | 1008.5 |
| 20260505235818 | 76 | 207 | 7.0 | 11.3 | 0.00 | 0.00 | 0.00 | 31 | 1008.6 |
| 20260505235316 | 76 | 219 | 8.7 | 12.2 | 0.00 | 0.00 | 0.00 | 30 | 1008.4 |
| 20260505234813 | 77 | 183 | 6.1 | 13.0 | 0.00 | 0.00 | 0.00 | 30 | 1008.4 |
| 20260505234311 | 77 | 216 | 9.6 | 11.3 | 0.00 | 0.00 | 0.00 | 31 | 1008.3 |
| 20260505233807 | 77 | 210 | 8.7 | 13.0 | 0.00 | 0.00 | 0.00 | 30 | 1008.4 |
| 20260505233305 | 77 | 206 | 5.2 | 13.0 | 0.00 | 0.00 | 0.00 | 32 | 1008.3 |
| 20260505232802 | 78 | 219 | 14.8 | 14.8 | 0.00 | 0.00 | 0.00 | 30 | 1008.3 |
| 20260505232259 | 78 | 218 | 9.6 | 14.8 | 0.00 | 0.00 | 0.00 | 31 | 1008.2 |
| 20260505231755 | 78 | 210 | 7.8 | 16.5 | 0.00 | 0.00 | 0.00 | 31 | 1008.3 |
| 20260505231254 | 78 | 212 | 9.6 | 15.6 | 0.00 | 0.00 | 0.00 | 30 | 1008.2 |
| 20260505230752 | 79 | 213 | 11.3 | 13.0 | 0.00 | 0.00 | 0.00 | 30 | 1008.0 |
| 20260505230249 | 79 | 204 | 11.3 | 19.1 | 0.00 | 0.00 | 0.00 | 29 | 1008.4 |
| 20260505225745 | 78 | 204 | 9.6 | 12.2 | 0.00 | 0.00 | 0.00 | 31 | 1008.2 |
| 20260505225243 | 78 | 222 | 6.1 | 10.4 | 0.00 | 0.00 | 0.00 | 32 | 1008.2 |
| 20260505224737 | 79 | 212 | 7.8 | 15.6 | 0.00 | 0.00 | 0.00 | 32 | 1008.2 |
| 20260505224235 | 79 | 216 | 7.8 | 12.2 | 0.00 | 0.00 | 0.00 | 32 | 1008.2 |
| 20260505223733 | 80 | 194 | 5.2 | 13.9 | 0.00 | 0.00 | 0.00 | 30 | 1008.2 |
| 20260505223229 | 80 | 206 | 6.1 | 17.4 | 0.00 | 0.00 | 0.00 | 32 | 1008.5 |
| 20260505222725 | 80 | 188 | 7.0 | 14.8 | 0.00 | 0.00 | 0.00 | 30 | 1008.2 |
| 20260505222221 | 80 | 180 | 7.0 | 14.8 | 0.00 | 0.00 | 0.00 | 29 | 1008.3 |
| 20260505221719 | 79 | 204 | 8.7 | 14.8 | 0.00 | 0.00 | 0.00 | 31 | 1008.3 |
| 20260505221215 | 79 | 190 | 11.3 | 14.8 | 0.00 | 0.00 | 0.00 | 29 | 1008.2 |
| 20260505220712 | 80 | 215 | 12.2 | 18.2 | 0.00 | 0.00 | 0.00 | 29 | 1008.2 |
| 20260505220210 | 80 | 219 | 13.0 | 16.5 | 0.00 | 0.00 | 0.00 | 29 | 1008.4 |
| 20260505215708 | 80 | 217 | 10.4 | 13.9 | 0.00 | 0.00 | 0.00 | 31 | 1008.2 |
| 20260505215205 | 80 | 213 | 10.4 | 13.9 | 0.00 | 0.00 | 0.00 | 30 | 1008.1 |
| 20260505214703 | 80 | 206 | 10.4 | 13.9 | 0.00 | 0.00 | 0.00 | 30 | 1008.3 |
| 20260505214200 | 80 | 221 | 15.6 | 16.5 | 0.00 | 0.00 | 0.00 | 30 | 1008.4 |
| 20260505213657 | 80 | 207 | 7.8 | 12.2 | 0.00 | 0.00 | 0.00 | 31 | 1008.3 |
| 20260505213154 | 80 | 208 | 9.6 | 13.9 | 0.00 | 0.00 | 0.00 | 31 | 1008.3 |
| 20260505212650 | 80 | 209 | 8.7 | 13.9 | 0.00 | 0.00 | 0.00 | 32 | 1008.3 |
| 20260505212148 | 80 | 212 | 7.8 | 21.7 | 0.00 | 0.00 | 0.00 | 32 | 1008.1 |
| 20260505211645 | 80 | 212 | 9.6 | 13.0 | 0.00 | 0.00 | 0.00 | 31 | 1008.1 |
| 20260505211142 | 80 | 209 | 12.2 | 17.4 | 0.00 | 0.00 | 0.00 | 30 | 1008.1 |
| 20260505210638 | 80 | 206 | 13.9 | 15.6 | 0.00 | 0.00 | 0.00 | 31 | 1008.1 |
| 20260505210135 | 80 | 218 | 11.3 | 13.0 | 0.00 | 0.00 | 0.00 | 33 | 1008.2 |
| 20260505205633 | 80 | 209 | 21.7 | 21.7 | 0.00 | 0.00 | 0.00 | 30 | 1008.3 |
| 20260505205131 | 81 | 218 | 13.0 | 16.5 | 0.00 | 0.00 | 0.00 | 33 | 1008.3 |
| 20260505204627 | 81 | 219 | 7.0 | 13.9 | 0.00 | 0.00 | 0.00 | 32 | 1008.2 |
| 20260505204125 | 81 | 212 | 8.7 | 16.5 | 0.00 | 0.00 | 0.00 | 33 | 1008.2 |
| 20260505203621 | 81 | 205 | 13.0 | 14.8 | 0.00 | 0.00 | 0.00 | 32 | 1008.1 |
| 20260505203119 | 81 | 196 | 7.8 | 17.4 | 0.00 | 0.00 | 0.00 | 33 | 1008.1 |
| 20260505202614 | 81 | 193 | 10.4 | 20.9 | 0.00 | 0.00 | 0.00 | 32 | 1007.9 |
| 20260505202111 | 81 | 216 | 10.4 | 17.4 | 0.00 | 0.00 | 0.00 | 33 | 1008.1 |
| 20260505201607 | 81 | 204 | 11.3 | 18.2 | 0.00 | 0.00 | 0.00 | 32 | 1008.0 |
| 20260505201105 | 82 | 211 | 7.0 | 16.5 | 0.00 | 0.00 | 0.00 | 34 | 1008.1 |
| 20260505200603 | 82 | 218 | 12.2 | 19.1 | 0.00 | 0.00 | 0.00 | 32 | 1007.9 |
| 20260505200100 | 82 | 189 | 6.1 | 16.5 | 0.00 | 0.00 | 0.00 | 33 | 1008.1 |
| 20260505195555 | 83 | 217 | 16.5 | 16.5 | 0.00 | 0.00 | 0.00 | 33 | 1008.1 |
| 20260505195053 | 82 | 173 | 10.4 | 19.1 | 0.00 | 0.00 | 0.00 | 33 | 1008.2 |
| 20260505194550 | 82 | 204 | 12.2 | 20.9 | 0.00 | 0.00 | 0.00 | 33 | 1008.0 |
| 20260505194046 | 83 | 208 | 16.5 | 23.5 | 0.00 | 0.00 | 0.00 | 33 | 1008.0 |
| 20260505193543 | 82 | 158 | 8.7 | 13.9 | 0.00 | 0.00 | 0.00 | 34 | 1008.3 |
| 20260505193040 | 82 | 215 | 13.9 | 23.5 | 0.00 | 0.00 | 0.00 | 36 | 1008.2 |
| 20260505192539 | 82 | 205 | 13.0 | 20.9 | 0.00 | 0.00 | 0.00 | 35 | 1008.6 |
| 20260505192036 | 82 | 183 | 4.3 | 16.5 | 0.00 | 0.00 | 0.00 | 36 | 1008.5 |
| 20260505191534 | 82 | 206 | 11.3 | 24.3 | 0.00 | 0.00 | 0.00 | 36 | 1008.3 |
| 20260505191032 | 82 | 207 | 13.9 | 16.5 | 0.00 | 0.00 | 0.00 | 35 | 1008.4 |
| 20260505190532 | 82 | 204 | 6.1 | 18.2 | 0.00 | 0.00 | 0.00 | 36 | 1008.8 |
| 20260505190028 | 82 | 171 | 7.8 | 13.9 | 0.00 | 0.00 | 0.00 | 35 | 1008.8 |
| 20260505185525 | 82 | 209 | 9.6 | 15.6 | 0.00 | 0.00 | 0.00 | 37 | 1008.8 |
| 20260505185021 | 82 | 202 | 9.6 | 15.6 | 0.00 | 0.00 | 0.00 | 36 | 1008.8 |
| 20260505184518 | 82 | 199 | 3.5 | 12.2 | 0.00 | 0.00 | 0.00 | 38 | 1008.9 |
| 20260505184015 | 82 | 212 | 13.9 | 18.2 | 0.00 | 0.00 | 0.00 | 35 | 1009.1 |
| 20260505183512 | 82 | 216 | 7.0 | 11.3 | 0.00 | 0.00 | 0.00 | 40 | 1009.2 |
| 20260505183009 | 81 | 225 | 7.8 | 13.9 | 0.00 | 0.00 | 0.00 | 36 | 1009.2 |
| 20260505182506 | 81 | 196 | 9.6 | 14.8 | 0.00 | 0.00 | 0.00 | 37 | 1009.4 |
| 20260505182002 | 81 | 201 | 9.6 | 17.4 | 0.00 | 0.00 | 0.00 | 38 | 1009.3 |
| 20260505181459 | 81 | 199 | 13.0 | 13.9 | 0.00 | 0.00 | 0.00 | 37 | 1009.3 |
| 20260505180956 | 82 | 216 | 10.4 | 13.0 | 0.00 | 0.00 | 0.00 | 38 | 1009.3 |
| 20260505180452 | 81 | 206 | 12.2 | 13.9 | 0.00 | 0.00 | 0.00 | 36 | 1009.8 |
| 20260505175949 | 81 | 196 | 5.2 | 13.0 | 0.00 | 0.00 | 0.00 | 37 | 1009.6 |
| 20260505175445 | 81 | 234 | 8.7 | 12.2 | 0.00 | 0.00 | 0.00 | 37 | 1009.5 |
| 20260505174942 | 80 | 200 | 7.8 | 13.9 | 0.00 | 0.00 | 0.00 | 37 | 1009.6 |
| 20260505174439 | 80 | 203 | 9.6 | 18.2 | 0.00 | 0.00 | 0.00 | 36 | 1009.8 |
| 20260505173935 | 80 | 210 | 9.6 | 14.8 | 0.00 | 0.00 | 0.00 | 39 | 1009.8 |
| 20260505173432 | 80 | 207 | 13.0 | 14.8 | 0.00 | 0.00 | 0.00 | 36 | 1009.8 |
| 20260505172929 | 80 | 200 | 9.6 | 13.9 | 0.00 | 0.00 | 0.00 | 36 | 1009.9 |
| 20260505172427 | 80 | 201 | 11.3 | 13.9 | 0.00 | 0.00 | 0.00 | 37 | 1010.1 |
| 20260505171926 | 80 | 180 | 5.2 | 13.0 | 0.00 | 0.00 | 0.00 | 37 | 1009.7 |
| 20260505171424 | 79 | 201 | 11.3 | 16.5 | 0.00 | 0.00 | 0.00 | 37 | 1010.1 |
| 20260505170920 | 79 | 222 | 9.6 | 19.1 | 0.00 | 0.00 | 0.00 | 39 | 1010.1 |
| 20260505170417 | 80 | 207 | 9.6 | 14.8 | 0.00 | 0.00 | 0.00 | 39 | 1010.1 |
| 20260505165912 | 79 | 202 | 4.3 | 13.9 | 0.00 | 0.00 | 0.00 | 39 | 1010.3 |
| 20260505165408 | 80 | 212 | 6.1 | 9.6 | 0.00 | 0.00 | 0.00 | 41 | 1010.2 |
| 20260505164903 | 79 | 235 | 12.2 | 16.5 | 0.00 | 0.00 | 0.00 | 38 | 1010.3 |
| 20260505164401 | 79 | 235 | 11.3 | 18.2 | 0.00 | 0.00 | 0.00 | 37 | 1010.4 |
| 20260505163859 | 79 | 236 | 4.3 | 10.4 | 0.00 | 0.00 | 0.00 | 43 | 1010.7 |
| 20260505163358 | 79 | 209 | 5.2 | 12.2 | 0.00 | 0.00 | 0.00 | 39 | 1010.7 |
| 20260505162855 | 80 | 191 | 1.7 | 7.8 | 0.00 | 0.00 | 0.00 | 42 | 1010.4 |
| 20260505162351 | 79 | 211 | 4.3 | 11.3 | 0.00 | 0.00 | 0.00 | 39 | 1010.7 |
| 20260505161848 | 79 | 244 | 6.1 | 12.2 | 0.00 | 0.00 | 0.00 | 41 | 1010.8 |
| 20260505161345 | 78 | 216 | 6.1 | 11.3 | 0.00 | 0.00 | 0.00 | 43 | 1010.6 |
| 20260505160843 | 78 | 196 | 13.0 | 13.9 | 0.00 | 0.00 | 0.00 | 38 | 1011.0 |
| 20260505160341 | 79 | 229 | 6.1 | 10.4 | 0.00 | 0.00 | 0.00 | 39 | 1010.8 |
| 20260505153320 | 78 | 259 | 6.1 | 13.0 | 0.00 | 0.00 | 0.00 | 42 | 1011.1 |
| 20260505152817 | 78 | 217 | 12.2 | 14.8 | 0.00 | 0.00 | 0.00 | 40 | 1011.2 |
| 20260505152314 | 78 | 199 | 6.1 | 13.0 | 0.00 | 0.00 | 0.00 | 41 | 1011.0 |
| 20260505151814 | 78 | 205 | 7.0 | 9.6 | 0.00 | 0.00 | 0.00 | 43 | 1011.4 |
| 20260505151310 | 78 | 206 | 6.1 | 11.3 | 0.00 | 0.00 | 0.00 | 40 | 1011.3 |
| 20260505150808 | 78 | 222 | 8.7 | 9.6 | 0.00 | 0.00 | 0.00 | 44 | 1010.9 |
| 20260505150305 | 77 | 211 | 7.8 | 12.2 | 0.00 | 0.00 | 0.00 | 42 | 1011.0 |
| 20260505140229 | 74 | 220 | 5.2 | 9.6 | 0.00 | 0.00 | 0.00 | 46 | 1010.8 |
| 20260505130153 | 68 | 161 | 5.2 | 6.1 | 0.00 | 0.00 | 0.00 | 57 | 1011.4 |
| 20260505124643 | 67 | 205 | 5.2 | 6.1 | 0.00 | 0.00 | 0.00 | 59 | 1011.4 |
| 20260505124139 | 66 | 220 | 5.2 | 7.8 | 0.00 | 0.00 | 0.00 | 61 | 1011.7 |
| 20260505123635 | 66 | 192 | 3.5 | 4.3 | 0.00 | 0.00 | 0.00 | 63 | 1011.8 |
| 20260505123132 | 65 | 203 | 3.5 | 5.2 | 0.00 | 0.00 | 0.00 | 63 | 1011.8 |
| 20260505122629 | 64 | 228 | 9.6 | 9.6 | 0.00 | 0.00 | 0.00 | 64 | 1011.9 |
| 20260505122126 | 64 | 226 | 5.2 | 13.0 | 0.00 | 0.00 | 0.00 | 63 | 1011.7 |
| 20260505121623 | 63 | 214 | 3.5 | 8.7 | 0.00 | 0.00 | 0.00 | 65 | 1011.8 |
| 20260505121119 | 63 | 203 | 5.2 | 7.0 | 0.00 | 0.00 | 0.00 | 66 | 1011.7 |
| 20260505120615 | 62 | 206 | 5.2 | 7.8 | 0.00 | 0.00 | 0.00 | 67 | 1011.7 |
| 20260505120111 | 62 | 189 | 2.6 | 5.2 | 0.00 | 0.00 | 0.00 | 68 | 1011.8 |
| 20260505115606 | 61 | 216 | 4.3 | 5.2 | 0.00 | 0.00 | 0.00 | 69 | 1011.6 |
| 20260505115104 | 61 | 215 | 4.3 | 7.0 | 0.00 | 0.00 | 0.00 | 68 | 1011.5 |
| 20260505114601 | 60 | 201 | 5.2 | 7.0 | 0.00 | 0.00 | 0.00 | 69 | 1011.4 |
| 20260505114057 | 60 | 204 | 4.3 | 8.7 | 0.00 | 0.00 | 0.00 | 70 | 1011.4 |
| 20260505113553 | 60 | 210 | 2.6 | 5.2 | 0.00 | 0.00 | 0.00 | 72 | 1011.4 |
| 20260505113050 | 59 | 205 | 1.7 | 5.2 | 0.00 | 0.00 | 0.00 | 74 | 1011.3 |
| 20260505112547 | 58 | 188 | 1.7 | 3.5 | 0.00 | 0.00 | 0.00 | 75 | 1011.5 |
| 20260505112045 | 58 | 182 | 2.6 | 2.6 | 0.00 | 0.00 | 0.00 | 75 | 1011.3 |
| 20260505111544 | 56 | 172 | 1.7 | 2.6 | 0.00 | 0.00 | 0.00 | 77 | 1011.0 |
| 20260505111040 | 56 | 180 | 1.7 | 1.7 | 0.00 | 0.00 | 0.00 | 78 | 1011.3 |
| 20260505110537 | 55 | 178 | 1.7 | 1.7 | 0.00 | 0.00 | 0.00 | 78 | 1011.0 |
| 20260505102009 | 54 | 165 | 0.0 | 1.7 | 0.00 | 0.00 | 0.00 | 82 | 1010.4 |
| 20260505101508 | 53 | 145 | 0.9 | 1.7 | 0.00 | 0.00 | 0.00 | 84 | 1010.5 |
| 20260505101004 | 52 | 158 | 1.7 | 1.7 | 0.00 | 0.00 | 0.00 | 87 | 1010.5 |
| 20260505100501 | 52 | 66 | 0.0 | 1.7 | 0.00 | 0.00 | 0.00 | 87 | 1010.4 |
| 20260505095957 | 51 | 33 | 0.0 | 1.7 | 0.00 | 0.00 | 0.00 | 88 | 1010.4 |
| 20260505095454 | 51 | 38 | 0.9 | 2.6 | 0.00 | 0.00 | 0.00 | 88 | 1010.5 |
| 20260505094950 | 51 | 56 | 1.7 | 2.6 | 0.00 | 0.00 | 0.00 | 87 | 1010.3 |
| 20260505094447 | 51 | 33 | 0.9 | 1.7 | 0.00 | 0.00 | 0.00 | 87 | 1010.3 |
| 20260505093943 | 52 | 72 | 0.0 | 1.7 | 0.00 | 0.00 | 0.00 | 85 | 1010.2 |
| 20260505093440 | 52 | 91 | 1.7 | 1.7 | 0.00 | 0.00 | 0.00 | 84 | 1010.2 |
| 20260505092937 | 53 | 97 | 1.7 | 2.6 | 0.00 | 0.00 | 0.00 | 83 | 1010.2 |
| 20260505092434 | 53 | 132 | 0.9 | 1.7 | 0.00 | 0.00 | 0.00 | 84 | 1010.2 |
| 20260505091932 | 53 | 127 | 0.0 | 1.7 | 0.00 | 0.00 | 0.00 | 83 | 1010.2 |
| 20260505091430 | 53 | 133 | 1.7 | 1.7 | 0.00 | 0.00 | 0.00 | 83 | 1010.2 |
| 20260505090927 | 53 | 31 | 1.7 | 1.7 | 0.00 | 0.00 | 0.00 | 82 | 1010.3 |
| 20260505090425 | 53 | 49 | 1.7 | 1.7 | 0.00 | 0.00 | 0.00 | 82 | 1010.2 |
| 20260505085922 | 54 | 34 | 1.7 | 1.7 | 0.00 | 0.00 | 0.00 | 81 | 1010.1 |
| 20260505085420 | 54 | 72 | 0.9 | 1.7 | 0.00 | 0.00 | 0.00 | 79 | 1010.1 |
| 20260505084918 | 55 | 106 | 2.6 | 2.6 | 0.00 | 0.00 | 0.00 | 78 | 1010.1 |
| 20260505084416 | 55 | 163 | 1.7 | 3.5 | 0.00 | 0.00 | 0.00 | 77 | 1010.3 |
| 20260505083914 | 55 | 138 | 1.7 | 2.6 | 0.00 | 0.00 | 0.00 | 78 | 1010.1 |
| 20260505083411 | 55 | 132 | 1.7 | 2.6 | 0.00 | 0.00 | 0.00 | 78 | 1009.9 |
| 20260505082907 | 55 | 140 | 1.7 | 2.6 | 0.00 | 0.00 | 0.00 | 78 | 1010.0 |
| 20260505082403 | 55 | 144 | 1.7 | 2.6 | 0.00 | 0.00 | 0.00 | 78 | 1010.0 |
| 20260505081900 | 55 | 156 | 1.7 | 2.6 | 0.00 | 0.00 | 0.00 | 78 | 1010.0 |
| 20260505081357 | 55 | 123 | 1.7 | 1.7 | 0.00 | 0.00 | 0.00 | 78 | 1009.8 |